Flag for Brazil Weather past 2 weeks in Pirassununga, São Paulo, Brazil

Now
70 °F

Scattered clouds.


Feels Like: 70 °F
Forecast: 51 / 74 °F
Wind: 7 mph from East

Location: Pirassununga Airport

Current Time: Jul 28, 2014 at 12:41:35 PM

Latest Report: Jul 28, 2014 at 12:00 PM


Visibility: N/A

Pressure: 30.33 "Hg

Humidity: 60%

Dew point: 55 °F

Location of PirassunungaLocation

Historic Weather in Pirassununga — Graph

°F

Pirassununga temperature yesterday

Maximum temperature yesterday: 66 °F (at 2:00 PM)
Minimum temperature yesterday: 57 °F (at 10:00 PM)
Average temperature yesterday: 62 °F

Past Weeks' High & Low Weather Summary

 TemperatureHumidityPressure
High82 °F (Jul 17, 4:00 PM)100% (Jul 14, 6:00 AM)30.36 "Hg (Jul 14, 6:00 AM)
Low39 °F (Jul 20, 7:00 AM)27% (Jul 20, 4:00 PM)30.01 "Hg (Jul 24, 12:00 PM)
Average63 °F71%30.19 "Hg
* Reported Jul 13 11:00 AM — Jul 28 11:00 AM, Pirassununga, Weather by CustomWeather, © 2014

Note: Actual official high and low records may vary slightly from our data, if they occured in-between our weather recording intervals... More about our weather records

Advertising

Pirassununga weather history for previous 24 hours

 ConditionsComfort  
Time TempWeatherWind HumidityBarometerVisibility
11:00 AM
Jul 28
70 °FPassing clouds.2 mph64%30.36 "HgN/A
10:00 AM64 °FSunny.2 mph78%30.36 "Hg10 mi
9:00 AM59 °FSunny.5 mph88%30.33 "Hg10 mi
8:00 AM55 °FSunny.3 mph100%30.33 "Hg10 mi
7:00 AM54 °FSunny.5 mph100%30.33 "Hg10 mi
6:00 AM52 °FSunny.2 mph100%30.30 "Hg10 mi
11:00 PM
Jul 27
59 °FMostly cloudy.6 mph94%30.33 "HgN/A
10:00 PM57 °FClear.3 mph94%30.33 "Hg10 mi
9:00 PM59 °FClear.2 mph88%30.30 "Hg10 mi
8:00 PM59 °FClear.6 mph94%30.30 "Hg10 mi
7:00 PM61 °FPassing clouds.6 mph88%30.27 "HgN/A
6:00 PM63 °FPartly cloudy.6 mph83%30.27 "HgN/A
5:00 PM66 °FPartly cloudy.7 mph73%30.24 "HgN/A
4:00 PM66 °FPartly sunny.7 mph78%30.24 "HgN/A
3:00 PM66 °FPartly sunny.5 mph73%30.24 "HgN/A
2:00 PM66 °FOvercast.3 mph78%30.24 "HgN/A
1:00 PM64 °FMore clouds than sun.5 mph78%30.27 "Hg5 mi
12:00 PM63 °FFog.7 mph88%30.27 "Hg3 mi
Weather by CustomWeather, © 2014

See weather overviewHow to use our weather pages